GFSMA_sfc_wetblb_144.txt.gz
Wetbulb
68.44 69.01 68.59 68.53 68.02 66.67 64.74 64.56 64.14 64.04 62.58 61.74 60.44 60.24 59.97 60.24 61.12 63.39 63.56 64.32 66.44 68.01 67.40 67.16 66.68 66.25 65.97 65.82 65.79 65.51 65.05 64.77 64.65 64.54 64.17 63.92 63.67 63.49 63.59 63.87 63.86 63.71 63.67
68.70 68.68 68.21 67.91 67.34 66.46 65.73 64.05 62.43 61.97 61.92 61.50 60.25 60.29 59.61 60.04 60.61 61.35 63.59 63.64 65.53 66.97 67.97 67.53 67.34 67.15 67.16 67.06 67.03 66.75 66.45 66.13 65.81 65.63 65.57 65.23 64.91 64.57 64.59 64.70 64.68 64.51 64.32
68.95 68.68 68.02 67.08 66.74 66.94 65.85 63.00 62.61 61.26 61.04 61.62 60.02 60.58 60.49 59.93 60.24 60.70 62.61 63.30 64.23 64.55 66.81 67.88 67.90 67.91 67.84 67.93 68.13 68.39 68.26 68.19 67.99 67.60 66.92 66.39 66.11 65.72 65.49 65.61 65.68 65.48 65.33
69.51 68.69 67.97 67.47 67.51 67.11 65.43 62.42 61.49 59.60 59.17 59.97 59.34 59.59 59.91 60.31 59.66 59.81 61.03 62.12 63.53 64.42 64.80 66.88 68.01 68.27 68.47 68.66 68.51 68.34 67.86 68.33 68.35 67.55 67.38 67.74 67.08 66.64 66.32 65.41 64.59 64.43 64.49
69.35 68.67 67.84 67.60 68.04 66.66 66.01 63.48 60.31 59.10 57.98 58.87 59.59 59.37 59.61 59.81 60.45 61.56 60.40 61.23 61.81 62.63 63.09 64.03 64.75 65.67 66.94 67.57 67.78 67.83 67.78 67.75 67.97 66.51 66.08 66.74 67.24 66.44 64.53 64.10 64.13 64.17 64.02
68.59 68.56 67.92 67.93 67.83 66.58 65.59 64.60 59.99 59.02 58.39 58.54 60.83 59.83 59.35 59.83 60.38 60.44 60.56 62.00 61.65 62.52 62.53 62.67 62.41 62.37 63.34 65.57 66.23 66.86 67.21 67.45 67.48 66.01 64.87 64.70 64.27 63.71 64.34 64.26 64.22 64.31 64.54
68.00 67.67 67.77 67.46 67.93 65.98 65.32 65.11 63.11 59.10 58.00 58.84 57.36 56.80 58.01 59.56 59.75 60.27 61.25 61.03 61.46 61.79 62.07 62.28 62.13 62.05 62.07 63.75 65.33 65.80 66.16 66.87 67.16 66.53 65.65 64.87 64.39 64.53 64.46 64.32 64.34 64.50 64.22
67.79 68.12 67.78 67.50 67.57 66.35 65.39 64.95 63.83 59.21 58.21 58.05 57.03 56.15 53.87 55.77 58.19 59.92 60.36 61.24 60.76 61.09 61.22 61.71 61.60 61.92 61.54 60.81 60.96 63.59 65.05 66.62 67.17 67.25 66.53 65.58 65.06 64.85 64.62 64.61 64.72 64.84 64.39
67.24 67.84 67.83 67.57 67.33 66.86 65.14 64.80 63.99 60.47 57.20 57.58 57.73 56.58 53.35 52.23 54.98 58.03 59.33 60.27 59.78 59.39 59.31 60.63 61.20 61.33 61.14 61.39 62.16 61.96 62.46 64.72 66.13 66.92 66.74 66.67 65.11 64.88 64.68 64.82 64.75 64.81 64.58
61.89 66.92 66.96 67.07 67.03 66.77 65.64 65.09 64.69 61.99 57.45 55.92 56.88 59.59 57.73 56.65 53.18 53.64 57.42 58.20 58.70 58.53 58.19 59.30 59.76 60.43 61.24 60.82 60.50 60.06 60.24 61.85 64.33 65.67 66.52 65.93 65.79 65.33 65.28 64.48 64.45 64.59 64.51
60.63 62.85 66.22 65.66 66.42 66.60 65.92 65.66 65.04 63.14 60.38 57.51 57.10 57.56 58.61 57.20 58.50 55.75 53.53 55.61 57.63 57.94 58.70 59.45 59.70 59.65 60.54 60.56 60.61 60.35 59.93 61.89 64.05 64.98 65.78 65.76 65.91 65.46 65.04 64.34 64.50 64.78 64.60
55.92 61.14 64.97 65.53 66.02 65.63 65.58 65.41 65.18 64.12 61.96 59.90 58.49 58.82 58.03 57.35 57.56 57.39 55.00 54.68 55.25 57.36 58.85 59.35 59.19 58.98 59.43 60.26 60.01 58.97 58.88 61.08 63.08 64.18 65.10 65.48 65.25 64.73 64.39 64.26 63.99 64.27 64.07
53.60 56.30 60.15 63.49 64.53 64.59 65.33 65.33 65.13 64.27 62.57 59.78 58.86 59.04 59.71 59.31 59.58 59.66 58.03 56.42 56.52 57.15 58.30 58.84 59.07 59.52 60.36 60.80 60.16 56.98 56.74 59.36 60.99 62.37 64.18 65.11 64.34 63.79 62.24 62.39 62.66 62.67 62.99
52.37 55.95 59.07 61.37 62.79 63.32 64.17 64.78 64.82 64.13 62.71 60.83 60.03 59.54 59.93 60.14 60.34 60.07 58.63 56.97 54.66 56.10 56.74 57.00 59.83 59.95 60.13 59.72 58.80 56.08 57.66 57.08 58.56 60.30 62.09 63.14 62.93 61.95 61.25 60.27 60.22 60.29 61.40
53.20 53.35 55.91 59.57 60.42 61.15 62.05 62.31 62.64 62.71 62.43 61.10 60.19 59.88 59.35 59.78 60.25 60.75 60.21 59.58 57.22 53.23 54.80 56.25 56.91 58.81 59.35 58.95 58.04 57.77 57.22 55.41 57.24 57.94 58.81 59.57 59.32 59.06 58.93 58.29 57.33 57.63 58.56
52.35 52.44 52.40 53.44 57.94 58.56 59.86 60.72 61.23 61.73 61.66 61.24 60.80 60.14 59.73 59.62 60.18 60.93 60.55 60.36 59.72 57.80 54.25 56.48 56.28 57.63 57.88 57.69 57.73 57.03 56.18 53.48 55.37 57.08 57.37 56.94 56.70 57.04 57.16 56.88 56.24 56.03 56.34
51.47 52.13 52.61 52.64 53.02 56.03 57.79 58.29 60.34 61.19 60.93 60.88 60.74 60.20 59.63 59.97 59.54 59.66 60.22 60.24 59.65 59.05 56.43 57.73 56.57 57.68 56.19 56.57 54.77 55.01 54.58 53.73 54.02 55.24 56.94 56.43 55.58 55.63 55.94 55.81 55.54 55.72 55.50
51.63 52.05 52.44 52.70 53.07 53.01 56.21 56.90 58.13 59.94 60.23 59.99 60.15 59.71 59.53 59.65 58.93 59.44 58.90 58.91 59.15 59.53 58.00 56.46 57.59 54.63 55.11 55.51 55.04 53.13 53.14 54.56 54.46 53.84 55.46 55.55 55.11 54.96 55.05 54.94 54.51 54.44 54.22
51.97 52.52 53.49 53.10 53.12 53.32 54.04 56.03 57.16 58.06 60.35 60.62 60.70 60.13 59.74 59.85 59.03 58.94 58.36 58.24 58.10 58.29 58.86 57.76 57.30 56.00 53.52 51.78 51.97 52.25 51.89 53.12 53.22 52.04 54.21 54.63 54.85 54.90 54.37 54.25 53.94 53.49 52.92
53.34 53.36 53.29 53.15 53.74 53.90 55.42 55.89 57.24 57.83 57.97 60.04 60.25 60.22 59.85 59.48 59.41 58.68 58.43 57.84 57.70 57.14 57.35 57.54 57.38 57.15 51.31 48.18 50.08 49.05 48.17 50.70 51.29 50.91 51.09 52.37 53.43 53.59 53.85 53.81 53.05 51.93 51.46
52.78 52.82 52.56 52.44 52.92 53.11 54.01 54.25 54.80 55.13 57.44 58.24 58.19 57.51 58.35 57.36 54.42 57.09 58.37 57.89 57.61 57.29 57.10 55.63 52.46 51.06 48.13 44.89 46.50 48.53 50.40 51.84 49.58 51.26 48.97 49.60 50.32 50.92 51.58 52.39 51.32 50.58 50.91
48.55 50.47 50.84 50.29 50.64 52.92 50.21 50.25 52.78 55.15 56.12 56.69 56.54 56.08 55.78 51.79 52.49 52.24 52.68 52.95 55.17 55.17 54.48 53.48 52.17 51.35 52.22 51.58 51.98 50.47 49.44 47.03 47.35 48.47 48.56 48.29 49.18 48.65 49.65 50.55 51.08 50.85 50.59
45.88 46.20 46.72 47.46 46.97 47.91 49.25 51.26 52.22 53.79 51.99 50.66 51.43 52.65 48.89 47.73 48.14 49.91 50.23 49.43 47.89 47.22 46.65 47.41 48.09 49.90 48.78 49.41 48.47 48.54 48.92 49.55 49.70 46.90 46.66 44.82 47.04 45.51 48.13 48.64 49.24 49.16 49.83
44.22 44.17 44.02 44.61 45.12 45.75 47.31 47.28 47.76 47.08 45.89 45.40 45.73 45.95 45.66 45.53 46.18 46.38 46.27 45.03 44.18 43.90 43.67 44.03 43.61 43.70 44.27 45.02 45.23 45.23 45.54 45.27 40.32 39.68 42.72 38.02 40.23 41.29 44.64 46.15 47.63 48.02 48.16
42.94 43.11 43.21 43.12 43.10 43.80 45.91 46.85 45.94 44.61 43.41 42.79 43.39 44.00 44.23 44.22 45.63 46.08 43.94 42.75 42.98 42.48 43.89 44.23 44.09 44.09 44.05 44.56 45.22 42.29 38.23 36.22 37.37 36.84 37.99 38.71 37.43 36.64 38.09 40.76 44.47 47.26 48.30
41.89 41.82 41.41 42.40 43.05 42.35 44.57 45.72 45.20 44.25 42.69 42.45 42.67 42.48 44.06 43.60 44.44 44.74 42.83 41.59 40.20 40.49 39.24 38.86 38.15 39.62 40.44 40.81 41.75 39.04 36.68 34.48 34.74 34.65 36.01 36.08 34.61 35.71 35.00 36.99 39.22 43.20 45.84

GFSMA_sfc_wetblb_147.txt.gz
Wetbulb
67.50 68.18 67.63 67.49 66.75 65.86 64.78 65.39 64.96 64.10 62.91 61.40 60.24 59.45 58.90 58.25 60.56 62.47 62.70 63.92 66.54 68.28 67.69 67.30 67.01 66.66 66.35 66.12 65.92 65.71 65.41 65.08 64.89 64.71 64.42 64.00 63.74 63.44 63.60 63.82 63.92 63.88 63.69
68.22 68.27 67.96 67.96 67.42 66.28 65.20 64.86 64.44 63.76 62.65 61.39 59.63 59.98 58.58 58.37 59.50 61.99 62.50 63.22 65.39 67.10 68.11 67.82 67.72 67.48 67.32 67.34 67.15 66.94 66.85 66.59 66.34 66.09 65.82 65.59 65.41 64.95 64.88 64.75 64.97 64.87 64.67
68.45 68.33 67.82 67.55 67.53 66.58 65.38 63.47 63.30 62.98 61.47 60.98 59.24 58.56 58.28 58.16 58.95 60.56 62.30 62.62 63.89 64.39 66.94 67.89 68.01 67.86 67.82 68.05 68.17 68.32 68.54 68.49 68.44 68.20 68.04 67.30 66.49 66.16 65.88 65.77 64.91 64.27 64.37
68.75 68.33 67.87 67.25 67.42 66.67 65.89 63.05 62.64 61.02 59.70 60.15 58.92 58.16 58.39 58.38 58.22 58.26 62.01 62.24 62.75 63.87 64.72 67.11 68.12 68.31 68.41 68.56 69.04 68.96 68.48 68.65 68.31 67.99 67.02 66.89 67.59 67.10 66.43 65.38 63.71 63.47 63.60
68.78 68.41 68.00 67.63 67.36 66.75 65.77 64.35 61.20 61.22 57.50 58.00 58.79 58.30 58.14 58.28 58.54 59.51 58.20 60.60 61.94 62.71 62.73 63.93 64.80 65.83 67.28 68.40 68.77 68.71 68.33 68.00 68.27 67.34 66.44 66.10 66.89 66.76 65.38 63.92 63.84 63.60 63.60
67.80 68.56 67.99 67.62 66.80 66.32 65.69 65.01 62.54 59.34 57.94 57.79 60.02 59.24 57.97 58.26 58.70 58.57 58.31 59.76 60.51 62.27 61.89 61.87 62.33 62.77 63.49 66.26 66.99 67.23 67.31 67.33 67.94 67.39 65.93 65.15 64.96 64.19 64.08 64.30 64.08 63.95 63.72
67.25 68.02 68.10 67.15 66.97 66.32 65.85 64.97 62.85 60.44 57.65 57.51 56.60 55.76 56.43 57.84 58.05 58.67 59.21 59.27 59.86 60.46 60.67 61.51 61.48 61.42 61.70 63.70 65.41 66.13 66.55 66.82 66.93 67.34 66.63 65.55 64.82 64.68 64.92 64.72 64.37 64.16 64.08
67.33 67.03 67.56 67.45 67.02 66.43 65.89 65.38 63.99 61.00 60.00 57.71 56.17 54.90 52.93 55.14 56.74 58.39 58.88 60.07 59.43 60.09 60.20 60.86 60.77 61.15 60.96 60.84 61.12 64.13 65.53 66.14 66.68 67.37 67.43 66.79 66.02 65.45 65.26 64.97 64.69 64.80 64.81
62.44 66.66 66.72 66.98 66.87 66.97 66.02 65.18 64.66 62.54 58.96 58.25 58.18 56.16 52.62 51.53 53.61 56.58 58.14 59.21 59.60 59.58 59.26 59.84 60.58 60.67 60.75 60.43 60.75 60.93 61.66 63.98 65.82 67.20 67.37 67.20 67.04 66.20 65.42 64.99 65.03 64.88 64.74
56.57 64.05 66.43 66.57 66.27 66.79 66.23 65.64 65.37 63.89 62.12 57.53 58.16 59.29 57.12 55.57 52.87 52.04 56.08 58.06 58.71 59.06 58.61 58.09 59.18 59.87 60.13 59.85 59.64 59.47 60.23 62.14 65.38 66.57 66.94 67.08 67.00 66.78 66.18 65.90 65.08 64.52 64.67
55.64 59.17 65.22 65.11 64.86 65.57 66.10 65.56 64.75 63.74 62.45 60.05 58.75 58.23 58.10 56.53 57.46 53.96 52.33 54.37 56.19 57.53 58.67 58.27 58.57 59.00 59.44 59.74 59.68 59.49 60.25 62.42 65.25 66.00 66.48 66.72 66.84 66.30 66.64 65.95 65.50 64.62 64.66
51.58 57.01 59.45 63.88 64.29 64.47 64.35 64.45 64.81 64.16 62.53 61.22 59.49 59.15 57.96 56.83 56.48 56.10 53.94 53.50 54.62 56.31 58.80 59.07 58.77 58.90 59.93 60.28 59.50 58.54 59.27 61.63 64.30 65.49 66.30 66.58 66.22 65.89 66.30 65.71 64.99 64.55 63.98
49.64 52.16 57.35 59.81 62.63 63.54 63.75 63.92 64.44 64.40 63.56 61.09 59.31 58.34 58.87 58.78 59.18 58.53 57.87 56.70 56.33 56.31 56.81 58.69 60.00 59.85 59.89 59.79 60.05 56.62 57.29 59.97 61.88 64.52 65.75 66.18 65.89 65.01 65.36 64.80 64.23 63.70 62.98
49.49 50.68 54.00 55.60 59.44 61.22 62.07 62.70 62.52 62.65 63.88 62.55 60.33 59.07 59.03 59.32 59.71 59.43 58.65 57.69 54.74 56.02 55.02 56.16 59.06 60.03 60.04 60.31 59.78 56.26 59.61 57.66 59.65 62.08 63.96 64.33 63.86 63.21 63.26 63.62 62.92 62.26 61.59
50.22 50.75 53.35 56.21 56.97 59.85 60.67 60.79 61.10 61.25 61.96 61.22 61.36 60.44 59.21 59.93 60.12 60.38 60.24 59.36 57.57 54.36 54.35 56.11 56.71 59.24 60.37 59.96 59.12 59.09 58.68 57.64 58.18 59.27 60.21 60.45 60.22 60.36 60.44 61.20 61.15 60.56 59.80
49.58 50.61 50.69 51.39 55.27 57.21 58.03 58.48 59.13 60.26 60.33 61.40 62.03 61.01 60.12 59.72 59.85 60.29 60.34 60.11 59.59 57.79 54.44 56.98 56.77 57.47 58.75 58.74 58.95 58.74 59.06 55.17 56.01 58.13 58.41 57.65 57.69 58.20 58.58 59.00 58.95 58.52 58.16
49.41 50.40 51.14 51.26 51.06 52.26 54.70 56.07 57.16 58.37 58.37 59.00 59.91 59.50 59.62 59.99 59.18 59.55 60.25 60.26 59.68 59.05 56.34 57.53 56.95 56.83 56.66 57.80 57.60 57.47 57.53 56.32 56.58 55.72 57.52 57.02 56.43 56.52 56.90 57.12 57.25 57.22 57.04
49.40 49.79 50.41 50.69 50.92 50.90 51.36 53.66 54.87 56.69 57.16 57.33 58.84 59.70 59.67 59.88 59.11 59.49 59.33 59.11 59.19 59.61 58.30 56.75 58.43 57.71 56.10 57.40 57.61 56.16 55.76 55.72 55.87 54.97 55.83 56.46 56.24 55.96 55.84 55.82 55.81 55.81 55.49
49.52 49.99 50.88 50.57 50.85 51.34 51.08 51.83 53.99 55.15 55.99 57.14 58.05 59.24 59.33 59.65 58.88 59.18 58.91 58.55 58.66 58.77 58.69 57.88 57.39 58.52 58.13 51.97 52.99 52.88 54.17 54.60 54.29 52.82 54.95 55.29 55.84 55.75 55.30 54.97 54.76 54.63 54.08
50.14 50.69 51.48 51.84 52.18 52.28 52.32 51.86 52.73 54.03 55.12 56.30 57.34 58.73 59.38 59.38 59.20 58.78 58.53 58.28 58.14 57.53 57.35 57.14 57.08 56.87 55.91 50.71 50.87 50.75 49.41 50.69 51.92 51.79 52.49 52.90 53.84 54.18 54.69 54.83 53.99 52.79 52.35
51.15 51.63 51.68 51.32 50.90 51.41 51.86 50.92 53.12 53.41 53.75 55.14 55.91 57.36 58.85 57.70 53.65 56.72 58.19 58.10 57.28 56.55 56.35 55.63 55.31 52.55 48.87 46.96 48.87 49.78 49.99 52.06 50.04 51.67 50.56 50.83 51.20 52.24 52.98 53.28 52.45 51.55 51.49
46.53 47.78 48.10 48.39 48.10 50.24 48.96 49.83 49.04 51.23 52.20 52.72 53.00 54.76 53.44 52.04 52.13 52.36 50.75 49.23 50.73 55.00 55.37 54.62 52.99 51.40 51.21 50.13 49.82 48.90 48.32 46.75 44.63 49.25 48.61 49.96 49.62 49.51 50.86 51.64 51.77 51.49 51.62
45.55 45.45 45.73 46.11 45.94 46.62 47.78 49.33 50.85 51.53 49.44 49.88 51.07 49.69 47.58 47.52 48.97 50.45 49.48 47.85 47.15 46.54 46.61 47.07 46.04 44.41 44.91 44.60 44.90 44.41 45.72 45.82 46.75 46.50 45.99 44.61 46.48 46.91 49.12 49.50 49.91 49.99 50.25
43.71 43.64 43.73 44.35 44.52 45.44 46.88 47.80 47.56 46.41 45.65 45.59 45.96 45.98 45.24 45.18 46.14 46.32 45.89 44.23 43.36 43.37 43.51 43.76 43.48 43.20 43.65 43.98 43.96 43.53 43.16 42.17 41.16 41.45 43.00 37.83 41.31 41.35 43.17 45.22 48.20 48.76 48.92
42.09 42.09 42.56 42.59 42.96 43.77 45.68 45.66 44.78 43.57 42.79 42.61 43.28 43.64 43.79 44.00 45.48 44.97 43.21 42.04 41.93 41.66 43.63 43.66 43.30 43.17 42.98 43.58 43.49 41.57 35.95 35.57 35.30 37.61 38.47 38.81 37.92 36.74 35.82 37.83 41.95 45.37 46.91
40.87 40.72 40.21 41.31 42.63 42.41 44.76 45.41 44.72 43.54 41.59 41.12 41.89 42.80 43.87 43.39 43.81 43.41 41.54 41.07 40.06 40.05 39.32 38.10 36.77 37.36 38.72 38.82 39.95 38.11 36.01 33.63 33.61 34.10 36.21 35.33 34.63 35.47 35.47 36.41 34.86 38.98 43.29

GFSMA_sfc_wetblb_153.txt.gz
Wetbulb
66.65 68.22 67.84 67.13 67.45 65.66 66.95 66.80 65.00 63.89 62.22 60.96 59.37 58.25 57.54 57.02 57.65 58.58 60.49 62.44 65.91 68.81 68.58 68.26 67.62 67.10 66.65 66.36 66.14 65.93 65.74 65.54 65.22 65.09 65.10 64.93 64.82 64.79 64.75 64.85 64.88 64.91 64.87
67.10 66.53 67.73 67.43 67.28 66.28 66.45 66.81 65.72 64.17 62.83 61.13 59.87 59.57 58.56 57.28 56.29 57.80 60.45 61.13 64.21 66.83 68.70 68.39 68.33 67.94 67.67 67.40 67.17 66.89 66.81 66.78 66.75 66.53 66.46 66.30 66.22 66.13 65.98 65.75 65.67 65.73 65.31
68.05 67.41 66.85 67.31 67.46 67.03 65.73 65.78 65.18 64.06 63.37 61.89 60.50 59.93 59.58 58.52 57.13 57.15 60.16 60.72 61.86 63.77 66.56 68.14 68.15 68.22 68.19 68.24 68.25 67.68 67.88 68.37 68.04 67.90 67.73 67.54 67.26 67.17 66.88 66.46 66.04 64.97 64.06
67.45 67.70 67.33 67.16 67.74 67.23 66.11 64.25 64.62 63.95 63.25 61.58 60.98 60.05 59.85 58.74 57.01 56.61 59.69 60.72 61.14 62.35 63.87 66.66 67.99 68.27 68.34 68.42 68.59 68.07 68.17 68.90 68.11 68.01 67.60 67.33 66.96 66.75 66.94 66.65 66.05 64.50 63.71
58.40 65.71 67.16 67.76 67.74 67.08 66.51 65.47 64.02 63.51 62.05 61.42 61.46 60.45 59.27 58.32 57.66 57.93 57.81 60.26 60.57 61.58 61.77 63.01 64.44 65.59 67.07 68.14 68.33 68.42 68.15 68.51 68.43 68.30 67.68 67.35 66.91 66.26 66.84 66.69 66.01 64.50 64.21
54.53 59.98 64.78 66.87 67.50 66.84 66.42 65.86 64.35 63.13 61.63 61.46 61.55 62.08 60.47 58.92 57.89 56.03 56.57 59.52 60.85 61.02 61.19 60.88 61.04 62.25 63.29 66.03 67.23 67.73 68.08 68.14 68.56 68.31 67.95 67.59 67.02 65.88 66.46 66.34 64.98 64.90 64.71
51.92 55.09 60.83 63.85 66.32 66.46 66.19 66.05 65.02 62.55 61.37 60.35 59.67 58.58 57.10 58.00 57.04 57.52 57.48 56.84 57.96 60.46 60.80 61.00 61.03 60.69 61.12 63.68 65.44 66.55 67.27 67.63 67.69 67.87 68.02 67.46 67.29 66.13 65.52 65.21 65.43 65.34 65.08
51.02 51.25 54.00 59.46 63.24 65.35 66.31 65.99 64.98 63.57 62.52 61.43 60.07 57.39 55.05 55.70 55.90 57.85 57.40 57.73 57.32 57.95 58.90 60.42 60.45 60.29 60.20 60.42 60.66 63.89 65.75 66.86 67.41 67.65 67.61 67.74 67.45 67.15 66.66 66.42 66.14 65.92 65.39
50.68 51.48 51.38 54.77 59.81 63.58 63.88 65.44 65.24 63.93 62.22 61.48 61.37 58.29 53.70 53.05 53.66 55.88 57.30 58.07 58.16 57.48 58.20 58.84 59.58 60.38 60.40 60.33 60.50 60.83 61.63 64.20 66.26 67.39 67.58 67.49 67.46 67.82 67.71 67.19 66.75 65.92 65.80
49.45 51.14 52.19 52.13 53.79 58.61 62.05 63.34 64.81 64.75 63.92 61.54 58.29 61.04 60.33 57.04 53.41 51.71 54.51 56.46 58.39 57.69 58.36 58.63 59.66 59.88 59.93 60.17 59.55 59.01 59.70 61.60 64.65 66.77 67.31 67.23 67.46 67.48 67.77 67.45 67.13 66.59 65.89
48.74 50.23 51.71 51.77 52.32 54.82 58.11 62.15 62.47 62.83 64.03 63.00 60.89 59.16 58.32 59.03 56.50 54.28 52.63 52.88 54.86 57.18 59.02 59.14 59.81 59.61 59.17 59.68 59.85 59.46 59.69 61.88 64.60 66.28 67.09 67.30 67.08 67.37 67.85 67.80 67.49 67.31 66.90
46.86 48.09 50.35 51.92 53.38 54.61 56.23 59.76 62.05 62.11 62.23 62.87 62.99 61.92 59.32 56.86 57.02 55.71 54.73 55.12 54.04 55.21 57.37 58.73 58.99 59.56 59.87 59.79 59.25 57.96 58.84 61.07 63.66 65.51 66.74 67.16 67.08 67.34 67.49 67.84 67.61 67.84 67.35
45.52 46.36 47.65 48.97 51.39 54.51 57.66 60.46 60.61 61.13 61.13 61.01 60.68 61.18 60.93 60.00 59.70 58.71 57.55 56.56 54.80 55.32 55.99 56.38 58.35 58.76 59.37 59.67 59.67 56.17 56.77 59.41 61.41 63.71 65.68 66.69 66.69 66.28 66.38 66.68 66.89 66.57 66.51
46.59 47.00 47.16 47.98 49.51 52.91 56.20 59.03 60.42 59.96 59.58 59.90 59.76 60.46 60.61 60.79 60.53 59.55 58.10 56.73 55.06 55.47 55.03 55.56 57.47 57.75 58.76 59.30 58.74 55.65 58.61 57.46 58.98 61.41 63.33 64.74 64.22 63.53 63.89 64.80 65.55 65.28 65.13
47.83 46.76 47.13 47.45 48.23 49.90 52.86 55.61 58.22 57.78 58.45 58.90 59.00 59.03 59.70 59.97 59.63 59.53 58.67 58.45 56.83 53.87 54.61 56.13 56.27 58.19 59.02 59.46 58.71 59.69 59.77 58.17 58.83 59.27 59.97 60.25 60.33 61.16 61.65 62.18 62.59 62.79 63.02
46.73 46.91 46.78 47.06 47.79 49.15 51.15 52.47 54.04 55.38 56.29 56.92 57.56 57.25 57.64 58.62 58.31 58.23 58.69 58.75 58.17 56.73 54.31 57.31 57.05 57.87 59.00 59.33 59.35 60.56 60.88 56.47 57.51 59.05 59.00 58.10 57.90 58.68 59.15 59.99 60.49 60.60 60.88
46.47 46.55 46.98 47.12 47.44 47.98 48.91 51.50 52.71 53.55 53.83 54.35 55.25 56.02 56.45 57.49 57.62 58.39 59.08 58.78 58.28 58.02 55.81 57.03 58.65 58.15 57.27 58.52 58.44 59.16 59.22 59.74 59.88 57.05 58.05 57.95 57.53 57.33 57.77 58.18 58.46 58.85 59.23
46.58 46.59 46.92 47.16 47.62 48.24 48.42 48.19 48.72 50.17 51.21 51.61 52.94 53.81 54.67 56.37 55.78 57.26 57.98 57.74 57.46 58.76 57.70 56.06 57.95 57.20 56.53 57.74 58.76 58.27 58.33 58.30 58.93 57.02 57.31 56.98 56.67 56.70 56.88 56.83 56.70 56.98 56.90
46.45 46.64 47.16 47.13 47.44 47.89 47.86 48.03 48.07 48.35 48.82 49.88 50.96 51.68 52.95 53.89 54.62 55.77 56.10 56.82 57.60 57.79 58.45 57.09 56.80 58.65 58.33 55.74 56.21 56.25 56.75 57.44 55.55 54.42 55.85 55.92 56.14 55.92 55.94 56.03 55.76 55.63 54.97
46.91 46.89 47.10 47.41 48.03 48.57 49.00 49.07 49.03 48.67 48.71 49.45 50.52 51.51 52.42 52.87 53.87 54.30 55.23 55.69 56.84 56.61 57.35 57.17 56.52 57.29 57.09 53.38 54.94 53.92 52.12 53.09 53.87 52.12 52.76 53.55 54.26 54.42 54.88 55.31 54.61 53.04 52.39
47.62 47.53 48.04 47.93 47.51 48.66 48.91 47.48 47.73 47.93 48.77 49.19 49.81 50.76 52.02 51.86 51.05 53.15 55.06 54.95 54.76 55.72 55.71 55.38 55.32 54.09 52.64 50.14 51.19 51.08 51.39 51.11 50.09 49.07 49.52 49.96 49.87 51.03 51.53 52.18 51.15 50.69 51.29
46.35 46.80 46.51 46.65 46.16 46.71 47.09 47.13 47.52 47.85 48.03 47.89 48.11 48.77 50.19 49.51 51.55 51.14 51.55 50.17 50.57 53.67 55.21 54.74 54.28 52.87 51.68 50.59 48.38 48.89 48.06 46.90 46.27 46.68 47.23 47.68 48.47 47.84 49.36 49.03 50.73 50.94 50.92
44.20 43.87 44.14 44.77 44.75 45.23 46.41 47.24 47.87 48.61 48.45 49.15 49.17 49.45 48.97 48.87 49.00 48.56 47.91 46.78 46.04 46.08 46.47 49.49 49.24 45.69 45.13 44.31 44.80 44.06 44.37 44.35 45.07 44.76 44.43 43.24 44.57 44.92 47.12 47.15 48.07 48.57 48.98
42.07 42.16 42.29 42.99 43.73 44.80 45.87 46.15 46.58 46.09 45.31 44.94 45.23 45.66 45.73 45.54 47.70 47.10 45.68 43.34 42.08 42.61 42.71 43.02 42.68 42.17 42.08 41.98 42.74 42.54 41.91 41.05 40.88 41.20 42.31 37.13 41.46 39.81 40.29 41.01 44.19 44.66 45.32
40.55 40.59 40.96 41.10 41.91 43.30 45.16 45.01 44.28 43.52 42.81 42.55 43.19 43.48 43.53 43.84 45.90 45.19 42.49 40.49 39.76 40.19 42.81 42.99 42.81 42.67 42.34 41.95 41.38 39.91 35.44 35.29 34.46 36.92 37.68 37.39 37.72 36.50 35.49 35.84 37.36 42.68 43.20
38.74 39.68 38.83 38.44 40.20 41.35 44.22 44.29 43.08 41.97 40.50 40.13 40.55 41.36 43.04 42.89 43.76 43.42 41.46 40.14 37.81 37.94 37.85 37.02 36.41 36.61 36.64 37.16 38.27 36.42 35.48 33.00 33.04 33.39 35.73 34.35 34.19 34.61 33.60 33.88 34.92 38.34 36.98

GFSMA_sfc_wetblb_156.txt.gz
Wetbulb
67.27 67.66 67.62 67.38 67.50 67.11 67.87 66.81 65.94 64.54 62.86 61.41 60.09 57.88 57.13 56.97 57.23 57.85 59.17 61.57 64.82 67.43 68.43 68.72 68.30 67.59 66.92 66.58 66.35 66.13 65.97 65.75 65.49 65.32 65.28 65.29 65.22 65.27 65.42 65.36 65.49 65.39 65.54
67.95 67.27 67.61 66.96 67.08 67.18 67.39 66.83 66.27 65.27 63.55 61.74 60.49 59.11 57.81 57.10 56.11 56.32 57.46 59.35 63.33 65.99 67.75 68.52 68.71 68.39 67.99 67.68 67.34 66.88 66.74 66.73 66.83 66.72 66.58 66.61 66.58 66.56 66.61 66.33 66.15 66.06 65.91
66.64 67.37 67.39 67.57 67.32 67.39 66.80 66.50 66.61 65.48 63.48 62.57 62.28 60.85 59.49 58.29 57.72 56.31 56.24 58.71 60.64 63.24 65.83 67.88 68.27 68.43 68.37 68.35 67.96 67.70 67.67 67.84 68.06 67.78 67.83 67.77 67.74 67.34 67.14 66.98 66.65 66.28 65.34
54.74 63.38 65.25 67.11 67.87 67.66 66.78 65.86 65.83 64.55 64.17 63.59 62.59 62.06 60.62 59.07 58.51 57.72 57.14 58.30 59.81 61.21 63.08 65.95 67.78 68.49 68.57 68.47 68.55 67.91 67.83 68.64 68.74 68.35 68.02 67.83 67.42 67.05 66.82 66.78 66.79 66.29 64.92
51.69 53.66 60.34 64.54 66.92 67.50 66.98 66.15 64.96 64.98 64.17 63.61 62.65 61.93 60.15 59.56 59.89 59.24 57.04 57.59 59.01 60.67 60.95 62.53 64.11 65.53 67.09 68.30 68.33 68.51 68.19 67.97 68.57 68.56 68.50 67.83 67.52 67.13 66.60 66.58 66.74 66.21 64.82
49.98 51.47 54.47 59.19 64.43 65.71 66.57 66.35 65.24 64.51 64.23 63.75 62.99 62.53 62.02 61.00 60.60 59.46 58.74 58.47 58.44 59.87 60.45 60.43 60.90 62.05 63.26 66.05 67.26 67.81 68.12 68.34 68.69 68.66 68.52 68.16 67.56 67.48 66.50 66.31 66.57 65.69 65.18
49.27 49.89 51.85 55.58 60.11 61.63 64.08 66.08 65.71 64.42 62.81 62.90 61.50 60.85 60.19 61.11 60.49 60.04 59.50 57.16 57.10 59.74 60.05 60.46 60.59 60.60 61.04 63.55 65.36 66.61 67.35 67.77 68.03 68.64 68.51 68.21 67.50 67.62 66.86 66.18 65.77 65.51 65.73
49.15 49.11 49.47 51.33 56.35 59.23 61.39 63.40 64.93 64.05 63.19 62.65 60.24 59.74 56.65 57.54 58.01 59.42 59.48 59.11 57.91 57.68 58.68 60.20 60.75 60.61 60.62 60.29 60.63 63.92 65.81 66.92 67.60 67.92 68.03 68.24 67.70 67.61 67.44 67.24 66.66 66.38 66.35
48.92 49.52 49.15 49.94 52.31 57.45 57.69 60.62 62.44 63.67 62.24 62.79 62.05 59.77 55.10 54.20 55.02 56.68 57.78 58.93 59.03 57.83 57.75 57.39 59.24 60.38 60.38 60.50 60.29 60.69 61.69 64.22 66.38 67.48 67.64 67.65 68.21 67.74 67.75 67.75 67.26 66.98 66.64
48.06 49.22 50.05 49.86 50.04 51.88 54.38 57.63 61.43 62.32 62.15 61.55 59.97 62.30 61.42 57.81 53.81 52.32 54.37 55.56 57.97 58.39 59.01 58.54 58.61 59.08 59.95 60.22 59.41 59.01 59.59 61.60 64.60 66.68 67.36 67.51 67.69 67.67 67.79 67.68 67.73 67.49 67.14
47.53 48.47 49.46 49.65 49.89 50.84 52.20 54.66 56.84 60.33 61.77 60.93 60.93 58.88 59.63 60.13 57.79 54.56 54.36 53.41 55.16 56.61 58.78 59.17 59.75 59.44 59.57 59.83 59.80 59.67 59.59 61.83 64.44 66.09 67.25 67.52 67.65 67.61 67.61 67.91 68.05 67.17 67.48
46.72 47.38 48.81 49.45 50.05 50.55 51.04 52.90 55.42 57.93 58.65 60.79 60.87 60.77 60.10 57.51 57.40 56.64 55.19 56.28 55.68 57.56 57.85 58.59 59.02 59.77 60.19 59.64 58.97 57.80 58.71 61.02 63.66 65.34 66.96 67.42 67.35 67.38 67.15 67.41 67.36 67.23 67.38
45.15 46.24 46.77 47.47 48.45 50.04 51.74 53.86 55.44 57.06 58.81 59.32 59.30 59.84 60.40 60.04 60.27 59.34 57.81 57.30 56.29 55.83 56.90 58.31 58.99 59.19 59.62 59.87 59.72 57.04 56.89 59.50 61.48 63.84 65.73 66.81 66.76 66.34 66.35 66.72 67.00 66.76 67.25
48.46 48.35 46.56 46.85 47.42 48.61 50.27 52.57 55.09 57.76 57.99 58.85 58.35 58.17 58.91 58.99 59.49 58.98 57.53 56.96 55.40 56.01 56.20 55.64 57.47 58.02 58.39 58.72 58.40 56.10 58.54 57.58 59.32 61.59 63.42 64.57 64.18 63.52 64.04 65.02 65.53 65.23 65.33
49.26 46.81 46.58 46.43 46.70 47.24 48.62 50.89 53.69 55.56 56.66 56.77 57.05 57.69 58.42 58.90 58.51 59.00 58.48 58.01 55.97 52.89 53.71 54.95 55.25 58.12 58.92 58.91 58.43 58.77 58.46 57.03 58.45 59.39 60.45 60.82 60.48 60.59 60.92 61.40 62.21 62.73 62.96
47.39 48.17 46.33 46.05 46.39 46.79 47.72 48.65 50.11 52.57 54.17 55.15 56.47 55.65 55.80 56.34 56.85 57.26 57.49 58.09 57.68 55.83 53.27 56.59 55.44 56.60 58.26 58.78 58.62 59.29 59.68 56.02 57.34 59.34 59.70 58.50 58.34 58.55 58.82 59.35 60.00 60.26 60.68
46.32 46.06 46.32 46.16 46.04 46.20 46.73 47.56 49.59 51.36 52.10 52.66 53.34 54.26 54.50 55.36 55.52 56.57 57.30 57.36 56.60 56.85 54.12 55.55 57.88 57.18 56.23 58.07 58.52 58.99 59.81 60.33 60.63 57.41 58.94 58.23 57.44 57.22 57.41 57.71 58.09 58.58 59.03
46.16 45.90 45.97 45.97 46.20 46.47 46.74 47.06 47.40 48.74 49.25 49.25 50.08 50.91 52.30 54.24 53.60 54.67 55.58 55.43 56.01 56.33 55.78 54.34 56.14 57.29 56.65 56.84 58.23 58.12 58.45 59.45 59.89 57.61 57.46 56.96 56.96 57.00 57.01 56.92 56.45 56.51 56.49
45.71 45.87 45.99 45.76 46.11 46.58 46.48 46.69 46.81 46.95 47.12 47.63 48.34 48.81 49.56 50.40 50.76 52.49 53.74 54.30 54.97 55.35 55.23 55.04 54.76 56.98 57.80 55.70 55.39 57.03 57.92 58.45 57.68 54.90 57.20 56.72 56.78 56.45 56.03 55.81 55.54 55.36 54.86
47.75 47.75 47.45 46.77 46.98 47.43 47.76 47.64 47.62 47.16 47.00 47.53 48.22 48.65 49.08 49.67 50.65 50.90 52.19 53.06 54.01 53.89 54.24 53.82 54.82 55.23 56.08 56.08 55.96 56.57 54.16 55.33 55.83 53.33 53.78 54.11 54.57 54.24 54.75 55.13 54.37 52.65 52.23
47.07 47.47 47.42 47.37 47.12 47.96 47.31 46.68 46.70 46.95 46.91 46.82 47.70 48.57 49.38 49.26 48.99 50.67 52.18 52.32 52.68 53.42 53.45 52.78 52.50 53.74 53.91 51.01 51.30 53.19 53.90 52.99 51.02 50.99 50.05 50.47 50.69 50.84 51.56 52.39 50.65 50.40 50.99
45.33 45.54 45.52 45.70 45.54 46.10 46.79 46.73 46.67 46.13 46.41 46.71 47.09 48.27 48.35 48.23 49.93 50.51 51.01 50.38 50.97 52.02 52.77 52.39 52.78 52.30 52.64 52.12 51.07 50.94 50.55 48.08 46.92 46.26 47.90 47.85 49.31 48.79 49.78 49.72 50.36 49.60 49.55
43.20 43.02 43.17 43.82 44.32 45.12 46.50 46.95 46.69 47.73 47.48 47.54 47.55 48.07 48.43 48.49 48.50 48.01 47.23 46.23 45.76 46.01 46.04 47.34 49.58 45.73 46.47 44.23 45.28 44.95 45.37 45.21 45.04 43.20 44.44 43.77 45.01 44.97 46.53 45.42 45.72 45.69 46.41
41.24 41.19 41.16 41.89 42.82 43.80 45.36 45.41 45.34 44.62 43.87 43.63 43.71 43.96 44.37 44.78 46.57 46.48 45.09 42.83 42.54 43.12 43.68 43.33 42.19 41.36 40.99 41.09 41.98 41.37 41.17 40.87 40.98 40.21 41.10 37.30 40.74 40.71 41.65 41.97 43.10 44.79 44.80
39.86 39.67 39.40 39.20 39.90 41.86 44.47 44.21 43.48 42.45 41.24 40.53 41.22 41.94 42.43 42.70 44.69 44.73 42.02 39.97 39.44 39.30 41.01 40.88 40.27 39.85 40.37 40.82 39.97 39.47 35.88 35.96 34.98 35.67 36.76 36.66 36.70 36.31 36.09 36.00 37.86 41.93 41.67
36.30 36.90 37.03 37.24 38.92 39.10 43.31 43.67 42.59 41.36 39.49 39.22 39.23 39.34 41.51 41.46 42.67 42.31 39.59 39.01 36.67 36.42 35.95 35.30 34.94 34.96 35.30 35.57 36.81 35.51 34.91 33.07 33.08 33.35 33.85 33.81 33.67 33.35 31.28 32.63 35.13 35.89 35.59

GFSMA_sfc_wetblb_162.txt.gz
Wetbulb
67.09 69.36 69.57 70.14 70.08 70.65 70.41 70.26 69.64 69.71 68.86 68.78 69.01 67.59 65.07 63.87 64.25 65.52 66.17 62.66 64.28 66.19 67.64 68.93 68.99 68.64 67.65 67.44 67.39 67.11 66.74 66.54 66.33 66.02 65.86 65.84 65.83 65.99 66.25 66.16 66.47 66.34 66.40
60.84 63.82 67.10 68.63 69.12 69.84 69.74 69.47 69.19 67.78 67.78 69.05 68.31 68.57 67.88 65.60 63.95 63.63 64.91 65.68 63.23 64.79 66.45 67.99 68.92 69.38 69.37 68.57 67.87 67.20 66.95 66.91 66.87 66.96 66.93 66.90 66.80 67.07 67.19 67.14 67.22 66.97 66.88
57.45 57.72 59.80 64.79 67.28 69.06 69.02 69.04 68.68 68.44 67.65 68.00 67.18 68.89 68.51 68.43 66.11 63.78 63.00 63.99 65.06 62.08 64.70 66.86 67.93 68.71 69.08 69.37 69.32 68.74 68.31 68.08 68.10 68.19 68.27 68.17 67.83 67.72 67.78 67.63 67.45 67.30 67.38
57.08 57.11 56.89 57.00 60.42 65.79 67.35 67.63 67.49 66.86 66.62 66.83 66.54 66.71 68.25 68.44 68.19 66.56 64.61 63.42 63.35 64.34 63.66 64.36 66.56 67.88 69.08 69.23 69.32 68.86 68.85 68.74 68.61 68.45 68.62 68.53 68.26 68.12 67.94 67.77 67.46 67.10 67.03
56.38 56.25 56.47 57.09 57.57 57.86 61.17 65.32 66.39 66.47 65.92 65.93 65.93 66.59 67.28 66.98 67.48 67.58 66.67 64.92 64.46 63.77 64.06 63.73 63.52 64.86 66.75 68.70 69.13 69.33 69.31 69.00 68.44 68.31 68.71 68.86 68.69 68.33 67.87 67.65 67.42 67.10 66.91
56.13 56.09 56.08 56.37 57.00 56.65 56.64 58.11 62.85 66.13 65.64 65.33 65.18 64.94 65.76 66.40 66.60 66.24 65.87 65.21 62.85 62.82 64.18 64.72 65.16 64.18 63.01 66.09 67.57 68.30 68.65 69.36 68.96 68.85 68.85 68.86 68.65 68.73 68.10 67.82 67.63 67.31 67.02
55.18 55.28 55.43 55.73 56.25 55.80 56.04 56.48 56.79 59.87 65.52 65.40 64.99 63.82 64.40 65.00 64.43 65.43 64.58 64.44 62.49 61.46 62.11 63.37 64.60 65.69 65.28 63.57 65.36 67.16 67.98 68.26 69.13 69.02 68.76 68.78 68.73 68.41 67.94 67.78 68.01 67.62 67.21
54.49 54.42 54.57 54.82 55.48 55.38 55.63 55.80 55.86 55.65 57.56 64.22 62.17 61.53 58.89 60.86 63.39 65.70 65.39 64.84 64.51 63.17 61.84 61.92 62.39 64.25 65.31 66.14 65.05 64.07 65.59 67.35 67.88 68.25 68.89 68.91 68.61 68.33 68.14 68.03 67.95 67.87 67.62
54.44 54.54 54.81 54.97 55.29 55.68 54.86 55.51 55.71 55.86 54.85 58.35 63.01 61.99 58.61 57.17 60.97 64.43 64.93 64.04 64.49 64.19 63.18 62.49 63.42 63.86 64.50 64.73 64.18 63.47 62.01 64.15 66.32 67.54 67.97 68.77 69.08 68.69 68.22 68.15 68.08 68.37 68.42
54.06 54.66 54.81 55.14 55.43 55.65 55.15 55.33 55.84 55.80 55.69 54.75 59.04 63.38 64.17 62.47 58.43 57.67 59.90 62.73 65.12 64.41 64.55 64.78 64.36 65.06 65.30 65.80 62.35 60.08 59.98 61.54 64.12 65.93 66.83 67.49 68.33 68.09 68.50 68.81 68.39 68.57 68.40
54.27 54.76 55.08 55.10 55.10 55.24 55.31 55.16 55.01 54.91 55.52 55.48 56.46 58.47 61.02 62.37 60.81 58.02 56.17 59.95 62.66 63.35 64.08 64.49 64.78 64.12 64.33 64.02 64.21 62.35 60.09 61.67 63.55 64.63 65.82 66.48 67.15 68.09 68.58 69.06 68.94 68.59 68.42
53.81 55.27 54.75 54.54 54.93 54.56 54.33 54.73 55.00 54.95 54.82 55.10 55.67 56.80 57.35 57.51 58.90 58.66 57.79 58.90 58.99 62.10 64.10 64.60 64.22 64.10 64.49 63.85 61.68 58.61 59.01 61.08 63.19 64.47 65.97 66.31 65.91 67.01 68.06 69.00 68.91 68.37 67.99
52.30 53.41 52.40 51.93 52.11 53.41 54.24 54.60 54.50 54.72 54.89 54.51 54.73 54.92 56.37 57.20 59.55 59.84 58.56 57.94 58.12 60.42 61.43 63.32 64.00 64.45 64.20 64.49 63.65 57.11 57.38 59.88 61.66 63.64 65.38 66.58 65.31 65.50 66.56 67.58 68.15 68.12 67.81
53.08 54.50 53.64 51.93 50.69 50.76 51.92 53.62 54.04 54.57 55.18 55.27 55.01 54.90 55.90 56.55 57.86 58.33 58.18 57.15 55.97 57.08 59.10 59.57 62.68 63.19 63.60 64.28 63.10 57.04 61.85 57.74 59.31 61.64 63.70 64.66 64.23 63.47 64.03 65.29 66.02 66.33 66.33
54.10 54.17 54.01 53.45 51.25 50.52 50.67 51.84 53.29 53.45 54.21 54.63 55.40 56.13 56.63 57.58 59.14 58.69 58.66 58.47 56.83 53.22 54.30 56.89 57.54 60.88 62.39 63.77 62.88 64.02 63.36 59.43 58.41 59.10 60.14 60.64 61.07 61.33 61.81 63.01 63.72 63.83 63.82
53.73 53.17 52.83 52.87 52.57 50.51 52.25 52.33 52.49 53.04 53.03 53.89 54.89 55.48 56.04 57.40 58.11 59.09 59.56 58.79 58.38 56.41 53.77 56.51 57.05 59.12 61.14 62.02 61.51 63.00 62.82 56.12 57.33 58.50 58.88 58.30 58.49 59.18 60.05 60.91 61.04 61.08 61.15
52.88 52.24 52.06 51.84 51.89 52.20 52.69 52.43 52.54 52.48 52.43 53.13 54.18 55.23 55.39 56.53 56.52 57.18 58.75 58.48 57.61 57.24 54.80 55.90 57.92 58.67 58.87 59.30 60.12 61.44 61.20 61.76 61.85 57.12 58.01 58.10 57.61 57.75 58.38 58.73 58.87 59.28 59.74
51.67 52.73 52.67 51.56 51.51 51.50 51.92 51.75 51.65 52.27 53.06 54.23 54.94 56.04 56.52 56.92 56.96 57.10 56.97 56.54 56.55 57.28 55.98 53.09 54.93 55.48 56.23 57.79 58.59 59.44 59.66 60.98 61.70 58.82 57.50 57.16 57.29 57.45 57.67 58.01 57.99 58.21 58.18
49.31 50.01 50.48 50.73 51.05 51.53 51.57 51.87 51.87 51.90 52.08 52.35 52.62 52.61 52.82 53.21 53.08 53.93 54.29 54.02 54.41 54.24 54.95 54.23 53.73 55.38 56.02 57.48 57.51 58.42 59.18 60.41 60.63 56.36 56.92 57.00 57.32 57.22 57.05 57.11 56.95 56.82 56.28
48.15 48.15 48.29 47.98 48.75 48.45 48.69 49.20 49.19 49.40 49.94 50.49 50.90 51.70 52.77 53.10 53.26 53.70 53.87 54.24 54.40 54.09 54.39 54.54 53.38 53.44 54.05 55.11 56.24 55.19 55.68 58.36 58.38 59.25 57.69 56.79 56.34 55.93 56.13 56.81 56.18 54.95 54.61
46.40 46.81 47.05 47.42 47.50 47.55 47.55 47.83 48.45 48.50 48.47 48.34 49.01 49.27 50.05 48.99 46.95 49.31 50.58 50.65 50.66 50.35 50.58 50.46 49.84 50.87 51.85 50.92 50.28 53.55 52.78 54.93 56.21 46.63 51.23 51.09 51.47 51.93 47.99 48.67 49.70 50.51 51.76
45.60 45.29 45.43 45.87 45.99 46.73 46.45 47.00 47.17 48.18 48.44 48.39 48.40 49.54 49.78 48.16 48.76 49.19 47.34 46.43 47.30 48.21 47.98 47.29 48.15 47.72 46.62 44.91 45.19 44.72 46.29 46.27 46.96 44.25 43.45 46.75 45.75 43.13 43.88 45.69 47.68 47.38 47.22
45.62 45.00 45.05 45.40 44.95 45.87 45.62 46.40 46.27 48.08 47.79 47.62 47.49 47.72 47.54 47.19 47.72 48.62 45.68 44.41 43.89 43.45 43.24 44.85 41.63 39.81 40.15 40.33 41.34 41.69 41.76 42.65 42.20 39.72 41.09 41.29 42.80 40.43 42.58 45.82 44.63 44.07 44.00
45.06 44.93 44.67 44.69 44.71 44.46 44.63 45.06 44.59 45.68 45.00 44.08 44.25 45.29 44.81 45.64 46.16 46.61 44.09 41.58 40.82 40.68 40.97 41.01 40.99 39.70 39.67 39.28 38.94 40.52 39.82 40.97 40.26 38.94 38.19 37.58 39.27 38.82 40.51 41.54 42.83 42.19 42.26
43.70 43.44 43.07 43.17 43.53 43.14 42.93 43.87 43.97 43.90 42.31 42.33 42.54 42.15 42.82 42.97 42.76 43.55 42.13 39.89 39.22 38.80 39.88 39.31 38.56 37.84 37.57 38.42 37.84 37.76 35.14 35.61 35.41 34.74 34.77 35.75 35.54 35.51 36.64 37.70 39.39 39.86 40.02
41.43 41.48 40.95 40.87 39.58 41.81 41.05 41.87 42.88 44.25 42.38 41.95 41.54 40.56 39.60 39.89 40.55 41.15 42.26 41.46 39.37 37.61 36.80 35.38 34.55 35.05 35.91 36.04 35.98 35.96 35.21 33.71 34.43 35.16 34.90 34.63 34.87 34.76 34.74 37.30 36.85 36.95 36.97